This demonstration page uses our WeatherBlox Daily Observations layout. Learn more.

Left ArrowRight Arrow

39.51506, -84.39828

Hourly Observations for June 19, 2019

Temp ( °F °C ) Dew Point ( °F °C ) Humidity (%) Winds ( mph kmh ) Pressure ( in mb ) Visibility ( mi km ) Precip ( " mm )
12:15 am 00:15 Partly Cloudy with Mist and Fog 68 20.1 68 19.9 99 99 Calm 29.86 1011 5 8 0.00 0.00
12:35 am 00:35 Partly Cloudy with Mist and Fog 68 20.2 68 20 99 99 Calm 29.85 1011 7 11 0.00 0.00
12:55 am 00:55 Mostly Cloudy with Mist and Fog 68 19.9 67 19.7 99 99 Calm 29.85 1011 5 8 0.00 0.00
1:15 am 01:15 Partly Cloudy with Mist and Fog 67 19.7 67 19.5 99 99 Calm 29.85 1011 3 5 0.00 0.00
1:35 am 01:35 Clear with Mist and Fog 67 19.3 67 19.2 99 99 Calm 29.84 1010 5 8 0.00 0.00
1:55 am 01:55 Clear with Mist and Fog 66 19 66 18.9 99 99 Calm 29.84 1010 4 6 0.00 0.00
2:15 am 02:15 Clear with Mist and Fog 66 19 66 18.9 99 99 S 3 6 29.83 1010 5 8 0.00 0.00
2:35 am 02:35 Mostly Cloudy with Mist and Fog 66 19 66 18.9 99 99 Calm 29.83 1010 4 6 0.00 0.00
2:55 am 02:55 Partly Cloudy with Mist and Fog 66 18.9 66 18.7 99 99 N 3 6 29.82 1010 4 6 0.00 0.00
3:15 am 03:15 Clear with Mist and Fog 66 18.7 65 18.6 99 99 Calm 29.82 1010 4 6 0.00 0.00
3:35 am 03:35 Partly Cloudy with Mist and Fog 66 19.1 66 19 99 99 Calm 29.82 1010 4 6 0.00 0.00
3:55 am 03:55 Mostly Cloudy with Mist and Fog 66 18.8 66 18.7 99 99 Calm 29.81 1009 3 4 0.00 0.00
4:15 am 04:15 Cloudy with Mist and Fog 65 18.2 65 18.1 99 99 NE 3 6 29.81 1009 1 2 0.00 0.00
4:35 am 04:35 Cloudy with Mist and Fog 65 18.4 65 18.3 99 99 Calm 29.81 1009 3 5 0.00 0.00
4:55 am 04:55 Cloudy with Fog 65 18.5 65 18.4 99 99 Calm 29.81 1009 0 0 0.00 0.00
5:15 am 05:15 Cloudy with Mist and Fog 65 18.6 65 18.5 99 99 Calm 29.81 1009 1 1 0.00 0.00
5:35 am 05:35 Cloudy with Mist and Fog 66 18.9 66 18.8 99 99 Calm 29.81 1009 4 6 0.00 0.00
5:55 am 05:55 Cloudy with Mist and Fog 66 19.1 66 19 99 99 Calm 29.81 1009 4 6 0.00 0.00
6:15 am 06:15 Cloudy with Mist and Fog 67 19.3 67 19.2 99 99 Calm 29.81 1009 3 4 0.00 0.00
6:35 am 06:35 Cloudy with Mist and Fog 67 19.5 67 19.4 99 99 Calm 29.81 1009 3 4 0.00 0.00
6:55 am 06:55 Cloudy with Mist and Fog 67 19.7 67 19.6 99 99 Calm 29.81 1009 2 3 0.00 0.00
7:15 am 07:15 Cloudy with Mist and Fog 68 19.8 67 19.7 99 99 Calm 29.82 1010 3 4 0.00 0.00
7:35 am 07:35 Cloudy with Mist and Fog 68 19.9 68 19.8 99 99 Calm 29.80 1009 2 3 0.00 0.00
7:55 am 07:55 Cloudy with Mist and Fog 68 20.1 68 20 99 99 Calm 29.80 1009 3 4 0.00 0.00
8:15 am 08:15 Cloudy with Mist and Fog 70 20.9 69 20.7 99 99 Calm 29.80 1009 3 5 0.00 0.00
8:35 am 08:35 Cloudy with Mist and Fog 70 21.2 69 20.8 98 98 Calm 29.79 1009 3 5 0.00 0.00
8:55 am 08:55 Cloudy with Mist and Fog 71 21.4 70 20.9 97 97 Calm 29.79 1009 3 5 0.00 0.00
9:15 am 09:15 Cloudy with Mist and Fog 71 21.4 70 20.9 97 97 Calm 29.80 1009 3 5 0.00 0.00
9:35 am 09:35 Cloudy with Mist and Fog 71 21.9 70 21 95 95 Calm 29.79 1009 3 5 0.00 0.00
9:55 am 09:55 Cloudy with Mist and Fog 72 22.1 70 21 94 94 Calm 29.78 1008 4 6 0.00 0.00
10:15 am 10:15 Mostly Cloudy with Mist and Fog 74 23.1 71 21.5 91 91 Calm 29.78 1008 4 6 0.00 0.00
10:35 am 10:35 Mostly Cloudy with Mist and Fog 74 23.5 70 21.3 88 88 Calm 29.78 1008 4 6 0.00 0.00
10:55 am 10:55 Partly Cloudy with Mist and Fog 75 23.8 71 21.7 88 88 Calm 29.78 1008 5 8 0.00 0.00
11:15 am 11:15 Sunny 76 24.4 71 21.9 86 86 WSW 7 11 29.77 1008 10 16 0.00 0.00
11:35 am 11:35 Sunny 77 25.2 71 21.6 81 81 W 8 13 29.77 1008 10 16 0.00 0.00
11:55 am 11:55 Partly Cloudy 79 25.9 68 20.2 71 71 WSW 6 9 29.77 1008 10 16 0.00 0.00
12:15 pm 12:15 Mostly Cloudy 79 26.1 70 21.1 74 74 S 5 7 29.76 1008 10 16 0.00 0.00
12:35 pm 12:35 Partly Cloudy 80 26.5 70 21.3 73 73 W 5 7 29.76 1008 10 16 0.00 0.00
12:55 pm 12:55 Partly Cloudy 81 27.4 71 21.6 71 71 W 8 13 29.75 1007 10 16 0.00 0.00
1:15 pm 13:15 Sunny 81 27.1 69 20.3 66 66 SSW 3 6 29.74 1007 10 16 0.00 0.00
1:35 pm 13:35 Partly Cloudy 82 27.7 70 20.9 67 67 SSW 7 11 29.72 1006 10 16 0.00 0.00
1:55 pm 13:55 Sunny 82 27.8 70 20.9 66 66 WSW 7 11 29.72 1006 10 16 0.00 0.00
2:15 pm 14:15 Partly Cloudy 79 26.3 69 20.8 72 72 SSW 8 13 29.71 1006 10 16 0.00 0.00
2:35 pm 14:35 Sunny 81 27.3 70 20.9 68 68 SSW 9 15 29.70 1006 10 16 0.00 0.00
2:55 pm 14:55 Sunny 82 27.8 69 20.7 65 65 Calm 29.69 1005 10 16 0.00 0.00
3:15 pm 15:15 Mostly Cloudy 82 27.6 69 20.4 65 65 S 5 7 29.68 1005 10 16 0.00 0.00
3:35 pm 15:35 Partly Cloudy 82 28 70 21.1 66 66 WSW 6 9 29.67 1005 10 16 0.00 0.00
3:55 pm 15:55 Mostly Cloudy 81 27.3 71 21.8 72 72 S 12 19 29.67 1005 10 16 0.00 0.00
4:15 pm 16:15 Sunny 81 27 71 21.6 72 72 S 5 7 29.65 1004 10 16 0.00 0.00
4:35 pm 16:35 Partly Cloudy 81 27.2 71 21.5 71 71 S 6 9 29.65 1004 10 16 0.00 0.00
4:55 pm 16:55 Partly Cloudy with Nearby Thunderstorms 81 27.2 70 21.3 70 70 WSW 6 9 29.65 1004 10 16 0.00 0.00
5:15 pm 17:15 Mostly Cloudy 79 26.1 71 21.6 76 76 S 10 17 29.64 1004 10 16 0.00 0.00
5:30 pm 17:30 Cloudy with Strong Thunderstorms 74 23.2 70 20.9 87 87 S 20 31 29.67 1005 2 2 0.24 6.10
5:55 pm 17:55 Mostly Cloudy with Thunderstorms 70 21.3 66 18.7 85 85 ESE 6 9 29.66 1004 10 16 0.42 10.67
6:15 pm 18:15 Mostly Cloudy 70 21.2 67 19.6 91 91 SSE 3 6 29.65 1004 10 16 0.00 0.00
6:35 pm 18:35 Mostly Cloudy with Light Rain 70 21.2 68 20.1 93 93 NNW 6 9 29.66 1004 10 16 0.01 0.25
6:55 pm 18:55 Cloudy with Light Rain 71 21.4 69 20.7 96 96 WNW 13 20 29.68 1005 7 11 0.02 0.51
7:15 pm 19:15 Cloudy with Rain 70 21.3 68 20.1 93 93 WSW 8 13 29.68 1005 7 11 0.03 0.76
7:35 pm 19:35 Cloudy with Rain 69 20.4 67 19.3 93 93 SW 5 7 29.68 1005 7 11 0.07 1.78
7:55 pm 19:55 Mostly Cloudy with Light Rain 69 20.5 67 19.6 95 95 WSW 3 6 29.68 1005 10 16 0.07 1.78
8:15 pm 20:15 Partly Cloudy with Nearby Thunderstorms 69 20.4 68 19.8 96 96 SW 5 7 29.67 1005 10 16 0.00 0.00
8:35 pm 20:35 Sunny with Nearby Thunderstorms 69 20.7 68 20.2 97 97 WSW 3 6 29.66 1005 10 16 0.00 0.00
8:55 pm 20:55 Sunny 69 20.7 68 19.9 95 95 SW 5 7 29.66 1005 10 16 0.00 0.00
9:15 pm 21:15 Partly Cloudy with Mist and Fog 69 20.6 68 19.8 95 95 Calm 29.66 1005 5 8 0.00 0.00
9:35 pm 21:35 Partly Cloudy 69 20.6 68 19.8 95 95 Calm 29.65 1004 10 16 0.00 0.00
9:55 pm 21:55 Partly Cloudy 69 20.5 68 20 97 97 Calm 29.65 1004 7 11 0.00 0.00
10:15 pm 22:15 Partly Cloudy with Mist and Fog 69 20.3 68 20 98 98 Calm 29.65 1004 5 8 0.00 0.00
10:35 pm 22:35 Partly Cloudy with Mist and Fog 68 20.1 68 19.9 99 99 E 3 6 29.65 1004 5 8 0.00 0.00
10:55 pm 22:55 Cloudy with Mist and Fog 69 20.3 68 20 98 98 E 3 6 29.65 1004 5 8 0.00 0.00
11:15 pm 23:15 Cloudy with Mist and Fog 69 20.3 68 20 98 98 E 3 6 29.65 1004 4 6 0.00 0.00
11:35 pm 23:35 Mostly Cloudy with Mist and Fog 69 20.3 68 20 98 98 Calm 29.64 1004 5 8 0.00 0.00
11:55 pm 23:55 Mostly Cloudy with Mist and Fog 69 20.4 68 19.9 97 97 Calm 29.64 1004 5 8 0.00 0.00

Powered by AerisWeather